www.pogodaiklimat.ru

Погода и климат >> Архив погоды >> Мексика >> Чойс


ПОГОДА в Чойсе

  • Прогноз погоды в Чойсе
  • Монитор погоды в Чойсе

АРХИВ ПОГОДЫ в Чойсе

Время (UTC), дата Ветер
(напр.,м/с)
 
Видим.   Явления Облачность Т
(С)
Тd
(С)
f
(%)
Тe
(С)
Тes
(С)
Комфортность P
(гПа)
Po
(гПа)
Тmin
(С)
Tmax
(С)
R
(мм)
R24
(мм)
S
(см)
06 15.04 штиль 0 5000 м ясно +22.0 +18.1 79 +27 +27 душно 1010.5 983.9 +36.8
09 15.04 штиль 0 5000 м ясно +17.8 +15.0 84 +18 +18 1010.5 983.6
12 15.04 штиль 0 2000 м ясно +15.2 +13.1 87 +15 +15 1010.6 983.3 +15.0 +36.8
15 15.04 штиль 0 30 км 6/0
[Ci]
+19.5 +16.6 83 +21 +27 комфорт 1011.5 983.9
18 15.04 С 1 30 км 10/0
[Ci]
+30.4 +25.6 76 +45 +63 опасность
перегрева
1011.4 983.9 +13.6 +31.6
21 15.04 С 1 30 км 10/0
[Ci]
+34.2 +28.2 71 +55 +71 опасность
перегрева
1010.6 983.5
00 16.04 С 1 30 км 10/0
[Ci]
+31.8 +27.0 76 +50 +52 опасность
перегрева
1009.6 982.8 +13.6 +35.0
03 16.04 С 1 2000 м 10/0
[Ci]
+25.6 +21.7 79 +33 +33 очень
душно
1010.0 983.5
06 16.04 штиль 0 5000 м 4/0
[Ci]
+22.0 +19.1 84 +27 +27 душно 1011.6 985.0 +13.6 +35.0
09 16.04 штиль 0 5000 м 4/0
[Ci]
+18.8 +16.2 85 +20 +20 1012.1 985.1
12 16.04 штиль 0 2000 м 8/0
[Ci]
+16.8 +14.7 87 +17 +17 1012.5 985.2 +16.6 +35.0
15 16.04 штиль 0 30 км 10/10 750 м
[Sc]
+17.4 +15.0 86 +17 +17 1014.4 986.8
21 16.04 штиль 0 30 км 5/5 750 м
[Sc diur, vesp]
+29.6 +23.3 69 +40 +51 опасность
солнечного
удара
1014.0 986.6
00 17.04 штиль 0 30 км ясно +29.0 +22.1 66 +37 +41 очень
душно
1011.4 984.3 +15.0 +32.0
03 17.04 штиль 0 6000 м ясно +24.0 +18.7 72 +29 +29 душно 1012.0 985.1
06 17.04 штиль 0 6000 м ясно +20.0 +15.7 76 +22 +22 комфорт 1013.0 986.1 +15.0 +32.0
09 17.04 штиль 0 6000 м ясно +17.0 +13.1 78 +17 +17 1014.3 987.2
12 17.04 штиль 0 2000 м ясно +15.2 +14.4 95 +15 +15 1015.1 987.2 +14.0 +32.0
15 17.04 штиль 0 30 км ясно +19.4 +14.7 74 +21 +28 комфорт 1015.2 987.5
18 17.04 Ю 1 30 км ясно +30.0 +22.3 63 +39 +61 опасность
солнечного
удара
1014.9 987.3 +14.0 +31.0
21 17.04 штиль 0 30 км ясно +31.3 +21.6 56 +39 +62 опасность
солнечного
удара
1012.4 985.1
00 18.04 штиль 0 30 км ясно +30.8 +22.1 60 +40 +44 очень
душно
1010.3 983.5 +14.0 +33.0
03 18.04 штиль 0 10 км ясно +24.1 +17.7 67 +28 +28 душно 1011.9 985.2
06 18.04 штиль 0 10 км ясно +19.9 +15.4 75 +22 +22 комфорт 1012.5 985.7 +14.0 +33.0
12 18.04 штиль 0 10 км ясно +13.4 +10.1 80 +13 +13 1011.4 983.9 +13.1 +33.0
15 18.04 штиль 0 30 км ясно +18.8 +14.5 76 +20 +27 1012.7 985.0
18 18.04 штиль 0 30 км ясно +33.6 +25.7 63 +48 +74 опасность
перегрева
1011.9 984.4 +12.2 +33.9
21 18.04 ЮЗ 1 30 км 3/0
[Ci sp]
+36.6 +27.6 60 +56 +75 опасность
перегрева
1008.9 981.8
00 19.04 ЮЗ 2 30 км 5/5 750 м
[Sc diur, vesp]
+34.7 +26.6 63 +52 +53 опасность
перегрева
1006.6 980.1 +12.2 +38.3
03 19.04 ЮЗ 1 10 км 6/6 750 м
[Sc]
+27.7 +22.5 73 +36 +36 очень
душно
1008.1 981.9
06 19.04 штиль 0 10 км 3/3 750 м
[Sc diur, vesp]
+22.0 +17.8 77 +27 +27 душно 1009.6 983.2 +12.2 +38.3
09 19.04 штиль 0 10 км 4/4 750 м
[Sc diur, vesp]
+18.0 +14.5 80 +18 +18 1009.4 982.6
12 19.04 штиль 0 10 км 3/3 750 м
[Sc diur, vesp]
+15.0 +12.2 83 +15 +15 1008.9 981.7 +14.8 +38.3
15 19.04 штиль 0 30 км 3/0
[Ci]
+20.6 +15.7 73 +23 +30 комфорт 1010.3 982.8
18 19.04 штиль 0 30 км 4/0
[Ci]
+40.0 +29.5 56 +64 +88 опасность
перегрева
1008.8 981.6 +13.0 +40.3
21 19.04 ЮЗ 1 30 км 6/0
[Cs]
+40.8 +29.2 53 +64 +81 опасность
перегрева
1007.0 980.3
00 20.04 З 2 30 км 5/0
[Cs]
+39.0 +28.3 55 +60 +62 опасность
перегрева
1005.8 979.6 +13.0 +42.6
03 20.04 ЮЗ 1 10 км 3/0
[Ci]
+31.0 +24.4 68 +43 +43 опасность
перегрева
1008.2 982.3
09 20.04 штиль 0 10 км ясно +20.5 +17.0 80 +24 +24 комфорт 1009.6 983.1
12 20.04 штиль 0 10 км ясно +17.8 +15.0 84 +18 +18 1010.2 983.3 +17.5 +42.6
15 20.04 штиль 0 30 км ясно +20.0 +16.0 78 +22 +30 комфорт 1012.5 985.1
18 20.04 СВ 1 30 км ясно +34.9 +28.6 70 +57 +80 опасность
перегрева
1012.4 985.1 +16.0 +35.0
21 20.04 ЮЗ 2 30 км ясно +38.0 +30.5 66 +66 +83 опасность
перегрева
1010.5 983.6
00 21.04 З 2 30 км 3/0
[Ci]
+35.6 +30.4 75 +64 +67 опасность
перегрева
1008.8 982.3 +16.0 +39.0
03 21.04 ЮЗ 2 2000 м ясно +28.6 +25.7 84 +42 +42 опасность
перегрева
1009.9 983.7
06 21.04 штиль 0 10 км ясно +23.2 +21.7 91 +31 +31 очень
душно
1011.3 984.9 +16.0 +39.0
09 21.04 штиль 0 10 км ясно +20.2 +12.7 62 +22 +22 комфорт 1011.0 984.3
12 21.04 штиль 0 10 км ясно +17.2 +11.1 67 +17 +17 1011.9 984.7 +16.0 +39.0
15 21.04 Ю 1 30 км ясно +20.8 +14.1 65 +25 +31 комфорт 1014.2 986.7
18 21.04 З 1 30 км ясно +31.8 +22.3 57 +41 +63 опасность
перегрева
1013.5 986.1 +15.4 +32.0
21 21.04 С 2 30 км ясно +37.4 +26.6 54 +54 +71 опасность
перегрева
1011.2 984.3
00 22.04 С 1 30 км 8/0
[Cs]
+32.4 +23.3 59 +43 +46 опасность
перегрева
1010.4 983.8 +15.4 +38.4
03 22.04 С 1 2000 м 10/10 750 м
[Sc]
+27.8 +21.0 67 +35 +35 очень
душно
1010.5 984.1

 

Местоположение метеостанции Чойс (Мексика): широта 26.73 долгота -108.20 высота над уровнем моря 238 м.

В архиве по умолчанию представлена погода в Чойсе за последнюю неделю. Архивные данные за месяц целиком и за предыдущие месяцы, начиная с января 2011 года, Вы можете получить, выбрав интересующий диапазон дат из раскрывающегося списка и нажав кнопку "Ввод!".


*Определитесь, кто Вы:
робот инопланетянин человек

Внимание! Время в таблицах - всемирное. Для получения местного времени необходимо прибавить поправку, которая равна -6 ч.

Смотрите также архив погоды в соседних городах и на ближайших метеорологических станциях:

Погода в Сьюдад-Обрегоне (Мексика) (177 км)
Погода в Кульякане (Мексика) (229 км)
Погода в Темосачи (Мексика) (250 км)
Погода в Паррале (Мексика) (259 км)
Погода в Эмпальме (Мексика) (282 км)
Погода в Тепеуанесе (Мексика) (292 км)
Погода в Гуаймасе (Мексика) (296 км)
Погода в Чихуахуа (Мексика) (303 км)
Погода в Чихуахуа университете (Мексика) (303 км)
Погода в Лорето (Мексика) (319 км)

Пояснения к столбцам:

Ветер - указаны скорость ветра в м/с - средняя за 10 мин, порывы в срок и между сроками (в фигурных скобках) и направление, откуда дует ветер: С - северный, СВ - северо-восточный, В - восточный, ЮВ - юго-восточный, Ю - южный, ЮЗ - юго-западный, З - западный, СЗ - северо-западный.
Видимость - горизонтальная дальность видимости в метрах или километрах. При видимости от 1 до 10 км при отсутствии осадков обычно наблюдается дымка, при ухудшении видимости до 1 км и менее - туман. В сухую погоду видимость может ухудшаться дымом, пылью или мглою.
Явления - указаны атмосферные явления, наблюдавшиеся в срок или в последний час перед сроком; фигурными скобками обозначены явления, наблюдавшиеся между сроками (за 1-3 часа до срока); квадратными скобками обозначены град или гололедные отложения с указанием их диаметра в мм.
Облачность - указаны через наклонную черту общая и нижняя облачность в баллах и высота нижней границы облаков в метрах; квадратными скобками обозначены формы облаков: Ci - перистые, Cs - перисто-слоистые, Cc - перисто-кучевые, Ac - высококучевые, As - высокослоистые, Sc - слоисто-кучевые, Ns - слоисто-дождевые, Cu - кучевые, Cb - кучево-дождевые. Подробнее классификацию облаков см. в Атласе облаков (PDF).
T - Температура воздуха - температура, измеренная на высоте 2 м над землей.
Td - Температура точки росы - температура, при понижении до которой содержащийся в воздухе водяной пар достигнет насыщения.
f - Относительная влажность воздуха - влажноcть воздуха, измеренная на высоте 2 м над землей.
Te - Эффективная температура - температура, которую ощущает одетый по сезону человек в тени. Характеристика душности погоды. При расчете учитывается влияние влажности воздуха и скорости ветра на теплоощущения человека.
Tes - Эффективная температура на солнце - температура, которую ощущает человек, с поправкой на солнечный нагрев. Характеристика знойности погоды. Зависит от высоты солнца над горизонтом, облачности и скорости ветра. Ночью, в пасмурную погоду, а также при ветре 12 м/с и более поправка равна нулю.
P - Атмосферное давление - приведенное к уровню моря атмосферное давление.
Po - Атмосферное давление - измеренное на уровне метеостанции атмосферное давление.
Tmin - Минимальная температура - минимум температуры воздуха на высоте 2 м над землей.
Tmax - Максимальная температура - максимум температуры воздуха на высоте 2 м над землей.
R - Количество осадков - Количество выпавших осадков за период времени, мм. При наведении курсора мыши на число - период времени, за который выпало указанное количество осадков.
R24 - Количество осадков - Количество выпавших осадков за 24 часа, мм.
S - Снежный покров - Высота снежного покрова, см. При наведении курсора мыши на число - состояние снежного покрова и степень покрытия местности в баллах.